GW5654 Weather Reports


time (UTC)temp
C
wind
direction
speed
KPH
gust
KPH
rain 1hr
cm
rain 24hr
cm
rain mn
cm
humidity
%
barometer
mb
20260510154600 13 298 9.7 24.1 0.00 0.43 0.00 62 1012.9
20260510153059 13 279 6.4 19.3 0.00 0.43 0.00 76 1012.6
20260510151604 14 295 9.7 20.9 0.00 0.43 0.00 77 1012.4
20260510150104 13 281 8.0 16.1 0.00 0.43 0.00 79 1012.2
20260510144555 13 273 9.7 19.3 0.00 0.66 0.00 80 1011.8
20260510143108 13 285 4.8 8.0 0.00 0.66 0.00 82 1011.9
20260510141559 13 240 3.2 6.4 0.00 0.66 0.00 84 1011.7
20260510140056 12 288 1.6 4.8 0.00 0.66 0.00 85 1011.5
20260510134559 12 73 3.2 12.9 0.00 0.74 0.00 85 1011.4
20260510133057 13 235 1.6 6.4 0.00 0.74 0.00 85 1011.4
20260510131556 12 207 1.6 11.3 0.00 0.74 0.00 85 1011.3
20260510130057 12 265 1.6 8.0 0.00 0.74 0.00 87 1011.1
20260510124610 12 236 1.6 9.7 0.00 0.79 0.00 89 1010.9
20260510123056 11 196 1.6 8.0 0.00 0.79 0.00 89 1011.0
20260510121558 11 297 3.2 8.0 0.00 0.79 0.00 90 1011.1
20260510120058 11 0 1.6 6.4 0.00 0.79 0.00 91 1011.0
20260510114606 11 223 1.6 8.0 0.00 0.79 0.00 91 1010.8
20260510113057 11 159 1.6 9.7 0.00 0.79 0.00 91 1010.8
20260510111557 11 289 1.6 8.0 0.00 0.79 0.00 92 1010.9
20260510110101 11 157 3.2 9.7 0.00 0.79 0.00 92 1010.4
20260510104614 10 157 1.6 6.4 0.00 0.79 0.00 92 1010.3
20260510103103 10 243 1.6 4.8 0.00 0.79 0.00 92 1010.2
20260510101558 10 219 0.0 4.8 0.00 0.79 0.00 92 1009.9
20260510100100 10 292 1.6 8.0 0.00 0.79 0.00 93 1009.7
20260510094603 10 220 1.6 3.2 0.00 0.79 0.00 93 1009.5
20260510093059 10 202 0.0 3.2 0.00 0.79 0.00 93 1009.1
20260510091558 10 222 0.0 6.4 0.00 0.79 0.00 93 1009.1
20260510090119 10 225 1.6 3.2 0.00 0.79 0.00 92 1009.0
20260510084600 10 215 0.0 3.2 0.00 0.79 0.00 92 1008.9
20260510083105 10 0 0.0 3.2 0.00 0.79 0.00 91 1009.0
20260510081557 10 249 1.6 8.0 0.00 0.79 0.00 92 1009.2
20260510080059 11 198 1.6 8.0 0.00 0.79 0.00 91 1009.1
20260510074619 11 256 3.2 9.7 0.00 0.79 0.00 91 1008.9
20260510073056 11 159 1.6 4.8 0.00 0.79 0.00 91 1008.9
20260510071602 11 78 1.6 3.2 0.00 0.79 0.00 91 1009.0
20260510070057 11 152 1.6 6.4 0.00 0.79 0.00 91 1009.5
20260510064611 11 144 1.6 3.2 0.00 0.79 0.00 91 1009.8
20260510063103 11 185 1.6 4.8 0.00 0.79 0.00 90 1009.7
20260510061558 11 188 3.2 8.0 0.00 0.79 0.00 90 1009.7
20260510060100 11 211 1.6 6.4 0.00 0.79 0.00 90 1009.5
20260510054556 11 208 1.6 6.4 0.00 0.79 0.00 90 1009.5
20260510053056 11 206 3.2 8.0 0.00 0.79 0.00 89 1009.4
20260510051606 11 208 1.6 9.7 0.00 0.79 0.00 89 1009.2
20260510050059 11 173 3.2 11.3 0.00 0.79 0.00 89 1009.1
20260510044556 11 229 1.6 8.0 0.00 0.79 0.00 89 1009.2
20260510043103 11 140 3.2 8.0 0.00 0.79 0.00 88 1009.2
20260510041610 11 170 3.2 9.7 0.00 0.79 0.00 88 1009.3
20260510040058 11 175 1.6 12.9 0.00 0.79 0.00 88 1009.2
20260510034556 11 156 3.2 12.9 0.00 0.79 0.79 88 1009.2
20260510033058 11 200 3.2 8.0 0.00 0.79 0.79 89 1009.1
20260510031601 11 159 3.2 11.3 0.00 0.79 0.79 89 1009.0
20260510030100 11 155 3.2 11.3 0.00 0.79 0.79 89 1009.1
20260510024603 11 165 3.2 9.7 0.00 0.79 0.79 89 1009.3
20260510023057 11 191 1.6 4.8 0.00 0.79 0.79 90 1009.3
20260510021602 11 145 1.6 6.4 0.00 0.79 0.79 90 1009.2
20260510020057 11 152 3.2 8.0 0.00 0.79 0.79 90 1009.0
20260510014556 11 215 1.6 8.0 0.00 0.79 0.79 91 1009.3
20260510013107 11 152 3.2 11.3 0.00 0.79 0.79 92 1009.1
20260510011600 11 137 1.6 4.8 0.00 0.79 0.79 94 1009.4
20260510010110 11 19 1.6 3.2 0.00 0.79 0.79 93 1009.2
20260510004604 11 34 0.0 3.2 0.00 0.79 0.79 93 1009.2
20260510003105 11 0 0.0 3.2 0.00 0.79 0.79 93 1009.2
20260510001557 11 0 0.0 3.2 0.00 0.79 0.79 92 1008.9
20260510000130 11 0 0.0 3.2 0.00 0.79 0.79 93 1008.6
20260509234606 11 62 0.0 3.2 0.00 0.79 0.79 92 1008.6
20260509233054 11 43 0.0 3.2 0.00 0.79 0.79 92 1008.5
20260509231557 11 40 0.0 3.2 0.00 0.79 0.79 92 1008.3
20260509230055 11 133 0.0 3.2 0.00 0.79 0.79 92 1008.3
20260509224556 11 0 0.0 3.2 0.00 0.79 0.79 92 1008.4
20260509223055 11 78 0.0 3.2 0.00 0.79 0.79 92 1008.3
20260509221608 11 0 0.0 3.2 0.00 0.79 0.79 92 1008.4
20260509220106 11 0 0.0 3.2 0.00 0.79 0.79 93 1008.5
20260509214558 11 49 0.0 3.2 0.03 0.79 0.79 92 1008.8
20260509213059 11 0 0.0 3.2 0.03 0.79 0.79 93 1009.0
20260509211555 10 0 0.0 3.2 0.03 0.79 0.79 93 1009.0
20260509210100 10 0 0.0 3.2 0.03 0.79 0.79 92 1009.1
20260509204558 10 80 0.0 3.2 0.00 0.76 0.76 92 1009.2
20260509203100 10 133 0.0 3.2 0.00 0.76 0.76 92 1009.3
20260509201556 10 143 0.0 4.8 0.03 0.76 0.76 92 1009.6
20260509200105 10 198 0.0 9.7 0.03 0.76 0.76 92 1009.7
20260509194555 10 130 1.6 4.8 0.03 0.76 0.76 91 1009.7
20260509193121 10 193 0.0 3.2 0.03 0.76 0.76 92 1009.9
20260509191614 10 140 0.0 4.8 0.00 0.74 0.74 92 1009.9
20260509190111 9 0 0.0 4.8 0.05 0.74 0.74 91 1010.1
20260509184557 9 0 1.6 3.2 0.10 0.74 0.74 91 1010.1
20260509183105 9 0 0.0 0.0 0.13 0.74 0.74 91 1010.2
20260509181557 9 0 0.0 1.6 0.18 0.74 0.74 92 1010.3
20260509180105 8 0 0.0 0.0 0.13 0.69 0.69 91 1010.4
20260509174558 8 0 0.0 3.2 0.10 0.64 0.64 91 1010.6
20260509173105 8 88 0.0 4.8 0.08 0.61 0.61 90 1010.5
20260509171618 8 0 0.0 0.0 0.05 0.56 0.56 91 1010.6
20260509170100 8 0 0.0 3.2 0.05 0.56 0.56 90 1010.8
20260509164558 8 131 0.0 3.2 0.08 0.53 0.53 90 1011.0
20260509163104 8 0 0.0 3.2 0.10 0.53 0.53 91 1011.2
20260509161558 7 38 0.0 3.2 0.10 0.51 0.51 91 1011.5
20260509160101 7 0 0.0 3.2 0.15 0.51 0.51 90 1011.7